• In Latvia
  • List of Countries
  • For 7 days
  • Water Temperature
  • Satellite Maps
  • Weather Map
  • Weather Widgets
  • user-avatar
    Login

    Hourly Weather Salta

    Today, 28 March, Tuesday

    Time Temperature Precipitation Wind Pressure Humidity
    00:00 +18°C° 0.1 mm 0 mps 652 mmHg 93%
    01:00 +17°C° 0.1 mm 0 mps 652 mmHg 93%
    02:00 +17°C° 0.1 mm 0 mps 652 mmHg 93%
    03:00 +17°C° 0 mm 0 mps 652 mmHg 93%
    04:00 +19°C° 0 mm 1 mps 652 mmHg 93%
    05:00 +18°C° 0 mm 1 mps 652 mmHg 93%
    06:00 +20°C° 0 mm 1 mps 653 mmHg 88%
    07:00 +21°C° 0 mm 1 mps 653 mmHg 84%
    08:00 +22°C° 0 mm 1 mps 654 mmHg 79%
    09:00 +24°C° 0 mm 1 mps 654 mmHg 73%
    10:00 +25°C° 0 mm 2 mps 654 mmHg 67%
    11:00 +26°C° 0 mm 3 mps 654 mmHg 60%
    12:00 +27°C° 0.1 mm 3 mps 654 mmHg 60%
    13:00 +27°C° 0.1 mm 3 mps 653 mmHg 60%
    14:00 +27°C° 0.1 mm 3 mps 652 mmHg 59%
    15:00 +27°C° 0.4 mm 3 mps 652 mmHg 62%
    16:00 +27°C° 0.4 mm 3 mps 651 mmHg 64%
    17:00 +26°C° 0.4 mm 3 mps 651 mmHg 66%
    18:00 +25°C° 0.7 mm 2 mps 651 mmHg 74%
    19:00 +23°C° 0.7 mm 2 mps 651 mmHg 82%
    20:00 +22°C° 0.7 mm 1 mps 652 mmHg 89%
    21:00 +21°C° 0.4 mm 1 mps 652 mmHg 90%
    22:00 +21°C° 0.4 mm 1 mps 652 mmHg 91%
    23:00 +20°C° 0.4 mm 1 mps 653 mmHg 92%

    Tomorrow, 29 March, Wednesday

    Time Temperature Precipitation Wind Pressure Humidity
    00:00 +18°C° 0.5 mm 0 mps 652 mmHg 92%
    01:00 +18°C° 0.5 mm 0 mps 652 mmHg 93%
    02:00 +18°C° 0.5 mm 0 mps 652 mmHg 93%
    03:00 +17°C° 0.4 mm 0 mps 651 mmHg 93%
    04:00 +17°C° 0.4 mm 0 mps 651 mmHg 94%
    05:00 +19°C° 0.4 mm 1 mps 651 mmHg 94%
    06:00 +20°C° 0.1 mm 1 mps 651 mmHg 90%
    07:00 +21°C° 0.1 mm 1 mps 652 mmHg 86%
    08:00 +22°C° 0.1 mm 1 mps 652 mmHg 81%
    09:00 +23°C° 0 mm 2 mps 652 mmHg 76%
    10:00 +25°C° 0 mm 2 mps 652 mmHg 70%
    11:00 +26°C° 0 mm 3 mps 652 mmHg 64%
    12:00 +26°C° 0.2 mm 3 mps 651 mmHg 65%
    13:00 +26°C° 0.2 mm 3 mps 650 mmHg 65%
    14:00 +26°C° 0.2 mm 3 mps 649 mmHg 65%
    15:00 +26°C° 0.2 mm 3 mps 649 mmHg 68%
    16:00 +26°C° 0.2 mm 3 mps 649 mmHg 70%
    17:00 +25°C° 0.2 mm 3 mps 648 mmHg 73%
    18:00 +24°C° 0.2 mm 2 mps 648 mmHg 79%
    19:00 +23°C° 0.2 mm 1 mps 648 mmHg 85%
    20:00 +21°C° 0.2 mm 1 mps 648 mmHg 91%
    21:00 +21°C° 0.2 mm 1 mps 649 mmHg 91%
    22:00 +21°C° 0.2 mm 1 mps 649 mmHg 92%
    23:00 +19°C° 0.2 mm 0 mps 649 mmHg 92%

    Day after tomorrow, 30 March, Thursday

    Time Temperature Precipitation Wind Pressure Humidity
    00:00 +21°C° 0.2 mm 1 mps 649 mmHg 92%
    01:00 +20°C° 0.2 mm 1 mps 649 mmHg 93%
    02:00 +20°C° 0.2 mm 1 mps 648 mmHg 93%
    03:00 +20°C° 0.2 mm 1 mps 648 mmHg 92%
    04:00 +19°C° 0.2 mm 1 mps 648 mmHg 92%
    05:00 +19°C° 0.2 mm 1 mps 648 mmHg 91%
    06:00 +20°C° 0 mm 1 mps 649 mmHg 87%
    07:00 +22°C° 0 mm 1 mps 650 mmHg 82%
    08:00 +23°C° 0 mm 1 mps 650 mmHg 78%
    09:00 +24°C° 0 mm 1 mps 651 mmHg 71%
    10:00 +26°C° 0 mm 2 mps 651 mmHg 65%
    11:00 +27°C° 0 mm 2 mps 651 mmHg 59%
    12:00 +28°C° 0.3 mm 3 mps 650 mmHg 58%
    13:00 +28°C° 0.3 mm 3 mps 650 mmHg 57%
    14:00 +29°C° 0.3 mm 3 mps 649 mmHg 57%
    15:00 +28°C° 0.4 mm 3 mps 649 mmHg 61%
    16:00 +27°C° 0.4 mm 3 mps 648 mmHg 66%
    17:00 +26°C° 0.4 mm 3 mps 648 mmHg 70%
    18:00 +25°C° 0.9 mm 2 mps 648 mmHg 77%
    19:00 +23°C° 0.9 mm 2 mps 649 mmHg 84%
    20:00 +22°C° 0.9 mm 1 mps 649 mmHg 91%
    21:00 +21°C° 1.1 mm 1 mps 650 mmHg 91%
    22:00 +21°C° 1.1 mm 1 mps 650 mmHg 92%
    23:00 +20°C° 1.1 mm 1 mps 651 mmHg 92%

    31 March, Friday

    Time Temperature Precipitation Wind Pressure Humidity
    00:00 +18°C° 0.7 mm 0 mps 651 mmHg 92%
    01:00 +18°C° 0.7 mm 0 mps 650 mmHg 93%
    02:00 +18°C° 0.7 mm 0 mps 650 mmHg 93%
    03:00 +18°C° 0.4 mm 0 mps 650 mmHg 93%
    04:00 +18°C° 0.4 mm 0 mps 650 mmHg 93%
    05:00 +18°C° 0.4 mm 0 mps 650 mmHg 94%
    06:00 +20°C° 0.1 mm 1 mps 651 mmHg 91%
    07:00 +21°C° 0.1 mm 1 mps 652 mmHg 89%
    08:00 +22°C° 0.1 mm 1 mps 652 mmHg 86%
    09:00 +22°C° 0.1 mm 1 mps 652 mmHg 82%
    10:00 +23°C° 0.1 mm 2 mps 652 mmHg 79%
    11:00 +24°C° 0.1 mm 3 mps 652 mmHg 75%
    12:00 +24°C° 0.3 mm 3 mps 652 mmHg 73%
    13:00 +25°C° 0.3 mm 3 mps 651 mmHg 71%
    14:00 +25°C° 0.3 mm 3 mps 651 mmHg 69%
    15:00 +25°C° 0.5 mm 3 mps 650 mmHg 73%
    16:00 +24°C° 0.5 mm 2 mps 650 mmHg 76%
    17:00 +24°C° 0.5 mm 2 mps 650 mmHg 79%
    18:00 +23°C° 1.1 mm 2 mps 651 mmHg 84%
    19:00 +21°C° 1.1 mm 1 mps 651 mmHg 89%
    20:00 +20°C° 1.1 mm 1 mps 651 mmHg 93%
    21:00 +20°C° 2.5 mm 1 mps 652 mmHg 92%
    22:00 +21°C° 2.5 mm 1 mps 652 mmHg 91%
    23:00 +21°C° 2.5 mm 1 mps 652 mmHg 89%

    1 April, Saturday

    Time Temperature Precipitation Wind Pressure Humidity
    00:00 +21°C° 3.1 mm 1 mps 652 mmHg 89%
    01:00 +20°C° 3.1 mm 1 mps 652 mmHg 89%
    02:00 +20°C° 3.1 mm 1 mps 652 mmHg 89%
    03:00 +20°C° 2 mm 1 mps 652 mmHg 89%
    04:00 +20°C° 2 mm 1 mps 652 mmHg 89%
    05:00 +20°C° 2 mm 1 mps 651 mmHg 90%
    06:00 +20°C° 2 mm 1 mps 652 mmHg 89%
    07:00 +20°C° 2 mm 1 mps 652 mmHg 88%
    08:00 +21°C° 2 mm 1 mps 653 mmHg 88%
    09:00 +21°C° 1.1 mm 1 mps 653 mmHg 85%
    10:00 +22°C° 1.1 mm 1 mps 653 mmHg 83%
    11:00 +22°C° 1.1 mm 1 mps 653 mmHg 80%
    12:00 +23°C° 0.2 mm 2 mps 652 mmHg 79%
    13:00 +23°C° 0.2 mm 2 mps 651 mmHg 77%
    14:00 +24°C° 0.2 mm 2 mps 651 mmHg 76%
    15:00 +24°C° 0.4 mm 2 mps 650 mmHg 77%
    16:00 +23°C° 0.4 mm 2 mps 650 mmHg 78%
    17:00 +23°C° 0.4 mm 2 mps 649 mmHg 79%
    18:00 +22°C° 1 mm 1 mps 650 mmHg 84%
    19:00 +22°C° 1 mm 1 mps 650 mmHg 88%
    20:00 +19°C° 1 mm 0 mps 650 mmHg 93%
    21:00 +21°C° 2 mm 1 mps 651 mmHg 92%
    22:00 +21°C° 2 mm 1 mps 651 mmHg 92%
    23:00 +21°C° 2 mm 1 mps 651 mmHg 92%

    2 April, Sunday

    Time Temperature Precipitation Wind Pressure Humidity
    00:00 +21°C° 3 mm 1 mps 651 mmHg 92%
    01:00 +20°C° 3 mm 1 mps 650 mmHg 92%
    02:00 +20°C° 3 mm 1 mps 650 mmHg 93%
    03:00 +20°C° 1.4 mm 1 mps 650 mmHg 93%
    04:00 +18°C° 1.4 mm 0 mps 649 mmHg 94%
    05:00 +18°C° 1.4 mm 0 mps 649 mmHg 94%
    06:00 +20°C° 0.6 mm 1 mps 650 mmHg 92%
    07:00 +21°C° 0.6 mm 1 mps 650 mmHg 90%
    08:00 +21°C° 0.6 mm 1 mps 650 mmHg 89%
    09:00 +22°C° 0.2 mm 1 mps 650 mmHg 85%
    10:00 +21°C° 0.2 mm 2 mps 650 mmHg 82%
    11:00 +23°C° 0.2 mm 2 mps 650 mmHg 79%
    12:00 +24°C° 0.1 mm 2 mps 649 mmHg 78%
    13:00 +24°C° 0.1 mm 2 mps 648 mmHg 76%
    14:00 +24°C° 0.1 mm 2 mps 648 mmHg 75%
    15:00 +24°C° 0.1 mm 2 mps 647 mmHg 77%
    16:00 +24°C° 0.1 mm 2 mps 647 mmHg 79%
    17:00 +24°C° 0.1 mm 2 mps 647 mmHg 81%
    18:00 +23°C° 0.1 mm 2 mps 648 mmHg 84%
    19:00 +22°C° 0.1 mm 1 mps 648 mmHg 88%
    20:00 +21°C° 0.1 mm 1 mps 649 mmHg 92%
    21:00 +21°C° 0 mm 1 mps 649 mmHg 92%
    22:00 +18°C° 0 mm 0 mps 649 mmHg 92%
    23:00 +18°C° 0 mm 0 mps 649 mmHg 92%
    Show more